This demonstration page uses our WeatherBlox Daily Observations layout. Learn more.

39.92423, -83.80882

Hourly Observations for December 6, 2018

Temp ( °F °C ) Dew Point ( °F °C ) Humidity (%) Winds ( mph kmh ) Pressure ( in mb ) Visibility ( mi km ) Precip ( " mm )
12:56 am 00:56 Cloudy 27 -2.8 22 -5.6 81 81 SW 10 17 30.29 1026 10 16.0934 0 0
1:20 am 01:20 Cloudy 27 -3 21 -6 80 80 SW 8 13 30.33 1027 10 16.0934 0 0
1:56 am 01:56 Cloudy 28 -2.2 22 -5.6 78 78 SW 10 17 30.29 1026 10 16.0934 0 0
2:13 am 02:13 Cloudy 28 -2 21 -6 74 74 SSW 12 19 30.33 1027 10 16.0934 0 0
2:56 am 02:56 Cloudy 28 -2.2 22 -5.6 78 78 SSW 13 20 30.29 1026 10 16.0934 0 0
3:12 am 03:12 Mostly Cloudy 27 -3 21 -6 80 80 SSW 8 13 30.33 1027 10 16.0934 0 0
3:56 am 03:56 Clear 27 -2.8 22 -5.6 81 81 SSW 12 19 30.28 1025 10 16.0934 0 0
4:56 am 04:56 Clear 27 -2.8 23 -5 85 85 SSW 14 22 30.26 1025 10 16.0934 0 0
5:56 am 05:56 Clear 27 -2.8 23 -5 85 85 SSW 13 20 30.26 1025 10 16.0934 0 0
6:56 am 06:56 Clear 27 -2.8 24 -4.4 89 89 SSW 13 20 30.27 1025 10 16.0934 0 0
7:56 am 07:56 Mostly Sunny 28 -2.2 24 -4.4 85 85 SSW 12 19 30.26 1025 10 16.0934 0 0
8:56 am 08:56 Mostly Cloudy 29 -1.7 25 -3.9 85 85 SW 15 24 30.25 1024 10 16.0934 0 0
9:56 am 09:56 Cloudy 30 -1.1 26 -3.3 85 85 SSW 16 26 30.24 1024 10 16.0934 0 0
10:56 am 10:56 Mostly Cloudy 32 0 27 -2.8 82 82 SW 13 20 30.24 1024 10 16.0934 0 0
11:56 am 11:56 Cloudy 33 0.6 27 -2.8 78 78 SW 16 26 30.22 1023 10 16.0934 0 0
12:56 pm 12:56 Cloudy 34 1.1 28 -2.2 79 79 SW 14 22 30.21 1023 10 16.0934 0 0
1:56 pm 13:56 Cloudy with Light Snow 34 1.1 31 -0.6 89 89 WSW 18 30 30.21 1023 8 12.87472 0 0.0254
2:10 pm 14:10 Cloudy with Light Snow 34 1 30 -1 87 87 WSW 15 24 30.24 1024 2 3.21868 0 0.0254
2:15 pm 14:15 Cloudy with Light Snow 34 1 32 0 93 93 WSW 16 26 30.24 1024 1.5 2.41401 0 0.0254
2:21 pm 14:21 Cloudy with Light Snow 34 1 32 0 93 93 WSW 15 24 30.24 1024 1 1.60934 0 0.0254
2:35 pm 14:35 Cloudy with Light Snow 34 1 32 0 93 93 SW 13 20 30.21 1023 1.5 2.41401 0 0.0254
2:44 pm 14:44 Cloudy with Light Snow 34 1 32 0 93 93 SW 14 22 30.21 1023 2.5 4.02335 0 0.0254
2:53 pm 14:53 Cloudy with Light Snow 34 1 34 1 100 100 SW 10 17 30.21 1023 3 4.82802 0 0.0254
2:56 pm 14:56 Cloudy with Light Snow 33 0.6 33 0.6 100 100 WSW 12 19 30.2 1023 4 6.43736 0 0.0254
3:08 pm 15:08 Cloudy with Light Snow 34 1 34 1 100 100 WSW 14 22 30.24 1024 2 3.21868 0 0.0254
3:56 pm 15:56 Cloudy with Light Snow 34 1.1 33 0.6 97 97 W 14 22 30.23 1024 3 4.82802 0 0.0254
4:43 pm 16:43 Cloudy with Light Snow 34 1 34 1 100 100 W 16 26 30.27 1025 2 3.21868 0.01 0.254
4:56 pm 16:56 Cloudy with Light Snow 33 0.6 33 0.6 100 100 W 15 24 30.24 1024 2 3.21868 0.01 0.254
5:14 pm 17:14 Cloudy with Light Snow 34 1 34 1 100 100 W 10 17 30.27 1025 1.5 2.41401 0.01 0.254
5:40 pm 17:40 Cloudy with Light Snow 34 1 32 0 93 93 W 9 15 30.27 1025 2 3.21868 0.01 0.254
5:56 pm 17:56 Cloudy with Light Snow 33 0.6 32 0 96 96 W 12 19 30.26 1025 3 4.82802 0.01 0.254
6:07 pm 18:07 Cloudy with Light Snow 34 1 32 0 93 93 W 13 20 30.27 1025 2 3.21868 0 0.0254
6:30 pm 18:30 Cloudy with Light Snow 32 0 32 0 100 100 NW 13 20 30.3 1026 3 4.82802 0.01 0.254
6:41 pm 18:41 Cloudy with Light Snow 32 0 30 -1 93 93 NW 14 22 30.3 1026 4 6.43736 0.01 0.254
6:56 pm 18:56 Cloudy with Light Snow 32 0 31 -0.6 96 96 NW 10 17 30.29 1026 5 8.0467 0.01 0.254
7:09 pm 19:09 Cloudy with Light Snow 32 0 30 -1 93 93 NW 12 19 30.33 1027 5 8.0467 0 0.0254
7:56 pm 19:56 Cloudy with Light Snow 31 -0.6 30 -1.1 96 96 NW 9 15 30.32 1027 6 9.65604 0 0.0254
8:06 pm 20:06 Cloudy with Light Snow 30 -1 30 -1 100 100 WNW 9 15 30.33 1027 8 12.87472 0 0.0254
8:23 pm 20:23 Cloudy 30 -1 30 -1 100 100 NW 10 17 30.36 1028 7 11.26538 0 0.0254
8:35 pm 20:35 Cloudy 30 -1 28 -2 93 93 NW 9 15 30.36 1028 9 14.48406 0 0.0254
8:56 pm 20:56 Cloudy 30 -1.1 29 -1.7 96 96 NW 8 13 30.34 1027 7 11.26538 0 0.0254
9:56 pm 21:56 Mostly Cloudy 30 -1.1 28 -2.2 92 92 NW 9 15 30.35 1028 9 14.48406 0 0
10:12 pm 22:12 Partly Cloudy 28 -2 23 -5 80 80 NNW 10 17 30.39 1029 10 16.0934 0 0
10:52 pm 22:52 Mostly Cloudy 28 -2 25 -4 86 86 NW 7 11 30.39 1029 10 16.0934 0 0
10:56 pm 22:56 Mostly Cloudy 28 -2.2 24 -4.4 85 85 NW 6 9 30.38 1029 10 16.0934 0 0
11:49 pm 23:49 Partly Cloudy 25 -4 21 -6 86 86 NNW 7 11 30.42 1030 10 16.0934 0 0
11:56 pm 23:56 Mostly Clear 25 -3.9 22 -5.6 88 88 NNW 7 11 30.4 1030 10 16.0934 0 0

Powered by AerisWeather